GW0140 Weather Reports


time (UTC)temp
C
wind
direction
speed
KPH
gust
KPH
rain 1hr
cm
rain 24hr
cm
rain mn
cm
humidity
%
barometer
mb
20260510130237 11 52 27.4 35.4 0.00 0.00 0.00 70 1016.2
20260510125250 11 58 22.5 35.4 0.00 0.00 0.00 68 1016.3
20260510124223 11 26 22.5 37.0 0.00 0.00 0.00 70 1016.5
20260510123235 11 34 25.7 37.0 0.00 0.00 0.00 70 1016.6
20260510121108 11 69 27.4 38.6 0.00 0.00 0.00 73 1016.8
20260510120046 11 40 27.4 38.6 0.00 0.00 0.00 73 1016.8
20260510115050 11 53 29.0 38.6 0.00 0.00 0.00 73 1016.9
20260510114101 11 61 24.1 33.8 0.00 0.00 0.00 73 1016.9
20260510113045 11 46 22.5 32.2 0.00 0.00 0.00 74 1017.0
20260510112047 11 59 20.9 32.2 0.00 0.00 0.00 75 1017.1
20260510111049 11 44 24.1 38.6 0.00 0.00 0.00 77 1017.1
20260510110036 11 56 29.0 41.8 0.00 0.00 0.00 77 1017.2
20260510105042 11 41 29.0 41.8 0.00 0.00 0.00 76 1017.1
20260510104029 11 36 27.4 35.4 0.00 0.00 0.00 76 1017.1
20260510103019 11 37 25.7 35.4 0.00 0.00 0.00 77 1017.1
20260510101951 11 41 22.5 33.8 0.00 0.00 0.00 78 1017.3
20260510100959 11 34 24.1 38.6 0.00 0.00 0.00 77 1017.3
20260510095947 11 34 25.7 38.6 0.00 0.00 0.00 77 1017.3
20260510094942 11 28 20.9 30.6 0.00 0.00 0.00 75 1017.5
20260510093917 11 57 24.1 35.4 0.00 0.00 0.00 77 1017.4
20260510092938 11 56 25.7 35.4 0.00 0.00 0.00 76 1017.5
20260510090857 11 53 24.1 35.4 0.00 0.00 0.00 78 1017.7
20260510085909 11 30 24.1 32.2 0.00 0.00 0.00 79 1017.7
20260510084844 11 34 25.7 35.4 0.00 0.00 0.00 79 1017.7
20260510083831 11 63 22.5 37.0 0.00 0.00 0.00 78 1017.7
20260510082820 11 22 25.7 37.0 0.00 0.00 0.00 78 1017.7
20260510080711 11 40 20.9 33.8 0.00 0.00 0.00 80 1017.6
20260510075720 11 42 22.5 30.6 0.00 0.00 0.00 79 1017.6
20260510073552 11 61 24.1 33.8 0.00 0.00 0.00 82 1017.6
20260510072616 11 55 24.1 33.8 0.00 0.00 0.00 82 1017.6
20260510071546 11 55 20.9 32.2 0.00 0.00 0.00 83 1017.7
20260510070610 11 49 17.7 32.2 0.00 0.00 0.00 84 1017.8
20260510064445 10 38 19.3 27.4 0.00 0.00 0.00 85 1017.7
20260510063508 10 34 20.9 32.2 0.00 0.00 0.00 86 1017.6
20260510062523 10 38 20.9 32.2 0.00 0.00 0.00 86 1017.5
20260510061514 10 49 20.9 29.0 0.00 0.00 0.00 86 1017.4
20260510060457 10 57 19.3 29.0 0.00 0.00 0.00 86 1017.2
20260510055433 10 18 17.7 27.4 0.00 0.00 0.00 86 1017.2
20260510053321 10 26 16.1 27.4 0.00 0.00 0.00 87 1017.2
20260510050032 10 19 17.7 27.4 0.00 0.00 0.00 87 1017.1
20260510045026 10 42 17.7 25.7 0.00 0.00 0.00 88 1017.2
20260510044027 10 39 17.7 25.7 0.00 0.00 0.00 88 1017.3
20260510042956 10 30 16.1 24.1 0.00 0.00 0.00 88 1017.4
20260510041952 10 22 16.1 22.5 0.00 0.00 0.00 88 1017.4
20260510040926 9 34 16.1 24.1 0.00 0.00 0.00 88 1017.4
20260510035914 9 31 16.1 24.1 0.00 0.00 0.00 89 1017.6
20260510034937 9 34 14.5 24.1 0.00 0.00 0.00 90 1017.7
20260510031610 9 31 16.1 25.7 0.00 0.00 0.00 90 1017.6
20260510030547 9 44 16.1 24.1 0.00 0.00 0.00 90 1017.6
20260510025551 9 25 14.5 24.1 0.00 0.00 0.00 90 1017.6
20260510024541 9 34 11.3 19.3 0.00 0.00 0.00 90 1017.6
20260510023531 9 20 14.5 24.1 0.00 0.00 0.00 90 1017.7
20260510022505 9 27 14.5 24.1 0.00 0.00 0.00 91 1017.8
20260510020403 9 24 12.9 20.9 0.00 0.00 0.00 91 1018.0
20260510015405 9 41 12.9 20.9 0.00 0.00 0.00 91 1018.0
20260510014331 9 16 8.0 17.7 0.00 0.00 0.00 91 1018.0
20260510013320 9 27 9.7 17.7 0.00 0.00 0.00 91 1017.8
20260510012315 9 18 9.7 16.1 0.00 0.00 0.00 91 1017.6
20260510011325 9 25 9.7 16.1 0.00 0.00 0.00 91 1017.6
20260510010308 9 20 9.7 17.7 0.00 0.00 0.00 91 1017.7
20260510005248 9 25 9.7 17.7 0.00 0.00 0.00 90 1017.8
20260510004226 9 5 9.7 17.7 0.00 0.00 0.00 90 1017.9
20260510003200 10 17 9.7 17.7 0.00 0.00 0.00 90 1017.9
20260510002153 10 42 8.0 16.1 0.00 0.00 0.00 90 1018.1
20260510001152 10 38 11.3 16.1 0.00 0.00 0.00 89 1018.1
20260510000133 10 29 8.0 16.1 0.00 0.00 0.00 89 1017.9
20260509235117 10 18 9.7 16.1 0.00 0.00 0.00 89 1018.1
20260509234058 10 44 8.0 16.1 0.00 0.00 0.00 89 1018.0
20260509233111 10 34 9.7 16.1 0.00 0.00 0.00 88 1018.1
20260509232117 10 38 9.7 14.5 0.00 0.00 0.00 88 1018.0
20260509231108 10 30 9.7 16.1 0.00 0.00 0.00 88 1018.0
20260509230120 10 31 12.9 17.7 0.00 0.00 0.00 87 1018.0
20260509225114 10 32 9.7 17.7 0.00 0.00 0.00 86 1018.2
20260509224116 10 35 11.3 20.9 0.00 0.00 0.00 85 1018.1
20260509223053 11 47 12.9 20.9 0.00 0.00 0.00 84 1018.0
20260509222048 11 42 9.7 16.1 0.00 0.00 0.00 84 1017.9
20260509221016 11 53 9.7 16.1 0.00 0.00 0.00 84 1018.1
20260509220016 11 51 9.7 16.1 0.00 0.00 0.00 83 1018.0
20260509215027 11 44 9.7 14.5 0.00 0.00 0.00 82 1017.9
20260509212829 12 54 8.0 12.9 0.00 0.00 0.00 81 1018.0
20260509211855 12 63 6.4 9.7 0.00 0.00 0.00 80 1018.0
20260509205751 12 48 6.4 12.9 0.00 0.00 0.00 80 1017.9
20260509204731 12 65 11.3 16.1 0.00 0.00 0.00 79 1017.8
20260509203730 12 74 12.9 17.7 0.00 0.00 0.00 77 1017.7
20260509202701 12 82 11.3 17.7 0.00 0.00 0.00 75 1017.6
20260509201704 13 77 9.7 16.1 0.00 0.00 0.00 73 1017.5
20260509200709 13 67 11.3 16.1 0.00 0.00 0.00 70 1017.4
20260509195650 13 79 11.3 16.1 0.00 0.00 0.00 68 1017.6
20260509194658 13 84 12.9 16.1 0.00 0.00 0.00 67 1017.5
20260509193625 14 78 14.5 17.7 0.00 0.00 0.00 63 1017.4
20260509191527 15 82 17.7 20.9 0.00 0.00 0.00 60 1017.1
20260509190508 15 74 17.7 20.9 0.00 0.00 0.00 60 1017.3
20260509185451 15 91 16.1 22.5 0.00 0.00 0.00 61 1017.3
20260509183330 16 84 16.1 19.3 0.00 0.00 0.00 55 1017.0
20260509182309 16 84 16.1 25.7 0.00 0.00 0.00 54 1016.9
20260509181251 16 85 17.7 25.7 0.00 0.00 0.00 53 1016.7
20260509180313 15 103 16.1 24.1 0.00 0.00 0.00 70 1016.7
20260509175249 15 97 17.7 24.1 0.00 0.00 0.00 69 1016.8
20260509173111 15 98 16.1 20.9 0.00 0.00 0.00 62 1017.0
20260509171007 15 111 19.3 25.7 0.00 0.00 0.00 57 1017.1
20260509170012 15 108 19.3 25.7 0.00 0.00 0.00 58 1017.0
20260509163849 15 113 19.3 30.6 0.00 0.00 0.00 59 1017.3
20260509162855 15 103 19.3 24.1 0.00 0.00 0.00 52 1017.3
20260509161825 16 115 17.7 24.1 0.00 0.00 0.00 52 1017.4
20260509160829 16 105 17.7 25.7 0.00 0.00 0.00 54 1017.4
20260509155842 16 119 17.7 25.7 0.00 0.00 0.00 56 1017.3
20260509153746 16 113 17.7 25.7 0.00 0.00 0.00 53 1017.0
20260509151636 16 104 17.7 30.6 0.00 0.00 0.00 58 1016.9
20260509145447 16 111 22.5 30.6 0.00 0.00 0.00 61 1016.6
20260509144442 16 93 20.9 30.6 0.00 0.00 0.00 61 1016.8
20260509143412 16 128 20.9 30.6 0.00 0.00 0.00 55 1016.9
20260509142336 16 115 24.1 30.6 0.00 0.00 0.00 54 1016.9
20260509141335 16 94 22.5 33.8 0.00 0.00 0.00 54 1017.0
20260509140340 16 109 24.1 33.8 0.00 0.00 0.00 52 1017.0
20260509135330 16 113 24.1 33.8 0.00 0.00 0.00 54 1017.1
20260509134345 16 108 22.5 33.8 0.00 0.00 0.00 57 1017.2
20260509133336 16 108 20.9 27.4 0.00 0.00 0.00 55 1017.4
20260509132306 16 121 19.3 27.4 0.00 0.00 0.00 55 1017.6